Weather History for Russell, KS

Change the Weather History Date:

Thursday, May 10, 2012

  Actual Average Record
Temperature  
Mean Temperature 69 °F -  
Max Temperature 90 °F 74 °F 99 °F (1967)
Min Temperature 50 °F 50 °F 31 °F (1981)
Cooling Degree Days 4    
Growing Degree Days 19 (Base 50)    
Moisture  
Dew Point 43 °F    
Average Humidity 43    
Maximum Humidity 80    
Minimum Humidity 17    
Precipitation  
Precipitation 0.00 in - - ()
Sea Level Pressure  
Sea Level Pressure 29.79 in    
Wind  
Wind Speed 14 mph (South)    
Max Wind Speed 26 mph    
Max Gust Speed 33 mph    
Visibility 10 miles    
Events      
Averages and records for this station are not official NWS values.
T = Trace of Precipitation, MM = Missing Value Source: NWS Daily Summary

Daily Weather History Graph

Daily Weather History Graph

Search for Another Location

Airport:

Trip Planner

Search our weather history database for the weather conditions in past years. The results will help you decide how hot, cold, wet, or windy it might be!

Date:

Astronomy

May. 10, 2012 Rise Set
Actual Time 6:26 AM CDT 8:36 PM CDT
Civil Twilight 5:57 AM CDT 9:06 PM CDT
Nautical Twilight 5:21 AM CDT 9:42 PM CDT
Astronomical Twilight 4:41 AM CDT 10:22 PM CDT
Moon 12:36 AM CDT (5/10) 10:53 AM CDT (5/10)
Length of Visible Light 15h 09m
Length of Day
14h 09m
Waning Gibbous, 73% of the Moon is Illuminated
May 10
Waning Gibbous
May 12
Last Quarter
May 20
New
May 28
First Quarter
Jun 4
Full

Hourly Weather History & Observations

Time (CDT) Temp. Dew Point Humidity Pressure Visibility Wind Dir Wind Speed Gust Speed Precip Events Conditions
12:53 AM 60.1 °F 44.1 °F 55% 29.87 in 10.0 mi South 13.8 mph - N/A   Clear
1:53 AM 57.0 °F 45.0 °F 64% 29.86 in 10.0 mi South 12.7 mph - N/A   Clear
2:53 AM 55.4 °F 46.4 °F 72% 29.87 in 10.0 mi South 13.8 mph - N/A   Clear
3:53 AM 55.0 °F 46.0 °F 72% 29.84 in 10.0 mi South 12.7 mph - N/A   Clear
4:53 AM 52.0 °F 45.0 °F 77% 29.84 in 10.0 mi South 10.4 mph - N/A   Clear
5:53 AM 50.0 °F 44.1 °F 80% 29.84 in 10.0 mi South 11.5 mph - N/A   Clear
6:53 AM 50.0 °F 44.1 °F 80% 29.83 in 10.0 mi South 11.5 mph - N/A   Clear
7:53 AM 55.0 °F 45.0 °F 69% 29.83 in 10.0 mi South 10.4 mph - N/A   Clear
8:53 AM 64.0 °F 44.1 °F 48% 29.82 in 10.0 mi SSW 13.8 mph - N/A   Clear
9:53 AM 73.0 °F 44.1 °F 35% 29.81 in 10.0 mi SW 16.1 mph - N/A   Clear
11:53 AM 82.9 °F 45.0 °F 26% 29.77 in 10.0 mi SW 12.7 mph 21.9 mph N/A   Unknown
12:53 PM 86.0 °F 43.0 °F 22% 29.76 in 10.0 mi SSW 16.1 mph 24.2 mph N/A   Clear
1:53 PM 87.1 °F 39.9 °F 19% 29.74 in 10.0 mi South 15.0 mph 26.5 mph N/A   Clear
2:53 PM 88.0 °F 37.9 °F 17% 29.73 in 10.0 mi SSW 16.1 mph 28.8 mph N/A   Clear
3:53 PM 88.0 °F 39.9 °F 18% 29.71 in 10.0 mi South 20.7 mph 33.4 mph N/A   Clear
4:53 PM 88.0 °F 39.9 °F 18% 29.71 in 10.0 mi South 17.3 mph 26.5 mph N/A   Clear
5:53 PM 87.8 °F 41.0 °F 19% 29.75 in 10.0 mi South 17.3 mph 25.3 mph N/A   Clear
6:53 PM 84.0 °F 41.0 °F 22% 29.73 in 10.0 mi South 26.5 mph 31.1 mph N/A   Clear
7:53 PM 80.1 °F 41.0 °F 25% 29.75 in 10.0 mi South 20.7 mph 28.8 mph N/A   Clear
8:53 PM 73.9 °F 41.0 °F 30% 29.76 in 10.0 mi South 15.0 mph - N/A   Clear
9:53 PM 68.0 °F 42.1 °F 39% 29.78 in 10.0 mi SSE 13.8 mph - N/A   Clear
10:53 PM 68.0 °F 45.0 °F 43% 29.80 in 10.0 mi South 17.3 mph - N/A   Clear
11:53 PM 66.0 °F 45.0 °F 47% 29.80 in 10.0 mi South 16.1 mph - N/A   Clear